{"data":{"norad_id":66275,"epoch":"2026-09-20T13:52:30.474336Z","epoch_age_seconds":89973,"freshness":"FRESH","line1":"1 66275U 25247L   26263.57813049  .00013975  00000+0  42390-3 0  9997","line2":"2 66275  53.1626   3.2534 0001498 103.8464 256.2705 15.34404775 50918","mean_motion":15.34404775,"eccentricity":0.0001498,"inclination_deg":53.1626,"raan_deg":3.2534,"arg_perigee_deg":103.8464,"mean_anomaly_deg":256.2705,"bstar":0.0004239,"rev_number":5091,"period_min":93.84746603125,"perigee_km":461.66429219564,"apogee_km":463.71380367961,"semimajor_km":6840.8260479376,"source":"CELESTRAK","updated_at":"2026-09-21T09:00:35.868682Z"}}